Location: Garos
(43.5000°N, 0.4667°W)
Time: 03:52:37
(UTC+00:00)

Cosmos 2227 - Pass Details

Date: 03 February 2023
Orbit: 833 x 862 km, 71.0° (Epoch: 26 March)

Event Time Altitude Azimuth Distance (km) Brightness Sun altitude
Rises 17:54:05 0° 334° (NNW) 3,449 7.5 -7.4°
Reaches altitude 10° 17:56:33 10° 334° (NNW) 2,509 6.8 -7.9°
Maximum altitude 18:02:20 85° 247° (WSW) 872 4.4 -8.9°
Drops below altitude 10° 18:08:05 10° 159° (SSE) 2,490 6.6 -9.9°
Sets 18:10:31 0° 159° (SSE) 3,420 7.3 -10.3°
